Regional Weather Roundup
Issued by NWS Charleston, SC

Current Version | Previous Version | Graphics & Text | Print | Product List | Glossary On
Versions: 1 2 3 4 5 6 7 8 9 10 11 12 13 14 15 16 17 18 19 20 21 22 23 24 25 26 27 28 29 30 31 32 33 34 35 36 37 38 39 40 41 42 43 44 45 46 47 48 49 50
000
ASUS42 KCHS 141410
RWRCHS
REGIONAL WEATHER ROUNDUP
NATIONAL WEATHER SERVICE CHARLESTON SC
1000 AM EDT SUN SEP 14 2014

NOTE: "FAIR" INDICATES FEW OR NO CLOUDS BELOW 12,000 FEET WITH NO
SIGNIFICANT WEATHER AND/OR OBSTRUCTIONS TO VISIBILITY.

NOT ALL STATIONS ARE QUALITY CONTROLLED BY THE NATIONAL
WEATHER SERVICE. USE DATA WITH CAUTION...ESPECIALLY
DEWPOINT OBSERVATIONS.

SCZ027-030-031-034>040-042>050-141500-
...SOUTH CAROLINA...

CITY           SKY/WX    TMP DP  RH WIND       PRES   REMARKS
N CHARLESTON   CLOUDY    78  73  84 CALM      30.18R
WATERFRONT PRK   N/A     77 N/A N/A CALM        N/A
FORT JOHNSON   NOT AVBL
MOUNT PLEASANT FAIR      75  73  94 CALM      30.18R
JOHNS ISLAND   PTSUNNY   75  75 100 CALM      30.18R
PINOPOLIS        N/A     75  72  88 E9        30.10S
MONCKS CORNER    N/A     75  75 100 NE5       30.18R
SUMMERVILLE    CLOUDY    75  75 100 CALM      30.19R
BEAUFORT MCAS  CLOUDY    79  74  84 W7        30.18R
BEAUFORT ARPT  PTSUNNY   79  73  83 E5        30.17R
HILTON HEAD IS PTSUNNY   81  73  78 NE7       30.18R
GEORGETOWN     NOT AVBL
WALTERBORO     CLOUDY    77 N/A N/A NE5       30.19R
ORANGEBURG     CLOUDY    72  69  90 NE7       30.19S
BARNWELL       CLOUDY    73  73 100 E8        30.19R
AIKEN          LGT RAIN  70  70 100 NE8       30.24R
MANNING        CLOUDY    70 N/A N/A NE5       30.20R
KINGSTREE      NOT AVBL
COLUMBIA       CLOUDY    69  66  90 NE7       30.21R FOG
SUMTER         CLOUDY    68  63  84 NE12      30.21R
FLORENCE       CLOUDY    68  62  81 NE7       30.23R
MYRTLE BEACH   CLOUDY    68  64  88 NE12      30.20R
N MYRTLE BEACH CLOUDY    68  65  90 N7        30.20R FOG

$$

GAZ063-065-086>088-099>101-113>116-118-119-134-136>141-150-141500-
...GEORGIA...

CITY           SKY/WX    TMP DP  RH WIND       PRES   REMARKS
SAVANNAH ARPT  PTSUNNY   80  72  76 NE5       30.17R
HUNTER AAF     MOSUNNY   80  73  77 NE6       30.15R
FORT STEWART   PTSUNNY   80  74  81 VRB3      30.15R
STATESBORO     NOT AVBL
SYLVANIA       PTSUNNY   79  76  89 E3        30.18R
CLAXTON        NOT AVBL
THOMSON        CLOUDY    73  73 100 NE8       30.24R
AUGUSTA-BUSH   CLOUDY    76  72  87 NE3       30.17R
AUGUSTA-DANIEL CLOUDY    74  71  91 NE10      30.20R
SWAINSBORO     CLOUDY    79  79 100 CALM      30.17S
VIDALIA        CLOUDY    77  73  88 E3        30.17S
ALMA           MOSUNNY   77  74  90 S3        30.15R
WAYCROSS       MOSUNNY   84  78  82 SW6       30.15R HX  94
JESUP            N/A     82  77  83 SW3       30.16R HX  91
BRUNSWICK      MOSUNNY   84  73  70 SW7       30.16S HX  91
SAINT SIMONS   SUNNY     83  73  72 W7        30.14S

$$

SCZ027-028-034-036>038-045-046-048>050-GAZ119-141-141500-
...LAKE AND SUPPLEMENTAL COASTAL OBSERVATIONS...

STATION/POSITION TIME  TEMP    WIND        PRES    WAVE   SWELL
                       AIR SEA DIR/SP/G            HT/PER HT/PER/DIR
                 (UTC) (F)     (DEG/KT/KT) (MB)    (FT/S) (FT/S/D)
UPR LAKE MARION  NOT AVBL
WINYAH BAY       1300   74      20/  4     1021.0S
LAKE MURRAY      1300   66      20/  3/  5 1022.7R
ACE BASIN NERRS  1300   76        CALM     1021.0S
FORT PULASKI     1400   79      30/  7/  8 1021.7R
SAPELO ISLAND    1300   81     280/  4     1021.0S

$$

ANZ835-935-AMZ111-154-330-350-352-354-374-450-454-472-141500-
...C-MAN AND BUOY OBSERVATIONS...

STATION/POSITION TIME  TEMP    WIND        PRES    WAVE   SWELL
                       AIR SEA DIR/SP/G            HT/PER HT/PER/DIR
                 (UTC) (F)     (DEG/KT/KT) (MB)    (FT/S) (FT/S/D)
FOLLY BEACH CMAN 1300   76      50/  7/  8 1021.7R
BUOY 41004       1400   77 83  350/ 10/ 12 1021.3R   3/ 4   2/ 5
BUOY 41008       1400   81 84  290/  8/ 10 1021.1R   2/ 5   2/190/ 5
5E ST. MARYS GA  1400      83                N/A     2/ 4
FRYING PAN BUOY  NOT AVBL
BUOY 41025       1400   74     360/ 19/ 23 1021.6R   4/ 6
CAPE LOOKOUT NC  1300   73      20/ 17/ 20 1022.2R
BUOY 41002       1350   78 83  190/  6/  6 1022.3R   2/ 4   2/230/ 4
BUOY 41010       1400   84 85  150/  6/  6 1020.8S   2/ 4   2/160/ 4
BUOY 41012       NOT AVBL
ST AUGUSTINE FL  1400   82      30/  3/  4 1021.2R
CAPERS NEARSHORE 1300   76      30/ 12/ 14   N/A
FRIPP NEARSHORE  NOT AVBL


$$


USA.gov is the U.S. government's official web portal to all federal, state and local government web resources and services.